Skip Page Navigation
NASA JPL Caltech
NASA Logo - Jet Propulsion Laboratory + View the NASA Portal
+ Center for Near-Earth Object Studies
JPL Home Earth Solar System Stars & Galaxies Technology
JPL Solar System Dynamics
BODIES ORBITS EPHEMERIDES TOOLS PHYSICAL DATA DISCOVERY FAQ SITE MAP

Significant website upgrade scheduled for September 27. More details available here.

JPL Small-Body Database Browser
Search: [ help ]  
90875 (1996 VE1)
Classification: Main-belt Asteroid          SPK-ID: 2090875
Ephemeris | Orbit Diagram | Orbital Elements | Mission Design | Physical Parameters | Discovery Circumstances ]

[ show orbit diagram ]
Orbital Elements at Epoch 2459396.5 (2021-Jul-01.0) TDB
Reference: JPL 33 (heliocentric ecliptic J2000)
 Element Value Uncertainty (1-sigma)   Units 
e .09749186561776438 4.9635e-08  
a 2.542033433943077 1.0127e-08 au
q 2.294205852005234 1.3097e-07 au
i 7.433267996024211 2.9856e-06 deg
node 126.0442672579367 3.259e-05 deg
peri 272.2016460223504 3.6068e-05 deg
M 41.46959793383245 1.5755e-05 deg
tp 2459225.971238372766
(2021-Jan-11.47123837)
6.4602e-05 TDB
period 1480.370132446341
4.05
8.8467e-06
2.422e-08
d
yr
n .2431824258741919 1.4533e-09 deg/d
Q 2.789861015880919 1.1115e-08 au
  Orbit Determination Parameters
   # obs. used (total)      1569  
   data-arc span      8902 days (24.37 yr)  
   first obs. used      1996-11-03  
   last obs. used      2021-03-19  
   planetary ephem.      DE441  
   SB-pert. ephem.      SB441-N16  
   condition code      0  
   norm. resid. RMS      .51817  
   source      ORB  
   producer      Otto Matic  
   solution date      2021-Aug-25 18:16:48  

Additional Information
 Earth MOID = 1.31551 au 
 Jupiter MOID = 2.56466 au 
 T_jup = 3.426 
[ show covariance matrix ]

Ephemeris | Orbit Diagram | Orbital Elements | Mission Design | Physical Parameters | Discovery Circumstances ]

Physical Parameter Table
Parameter Symbol Value Units Sigma Reference Notes
absolute magnitude H 14.78   n/a E2021B10  
diameter diameter 6.500 km 0.071 urn:nasa:pds:neowise_diameters_albedos::2.0[mainbelt] (http://adsabs.harvard.edu/abs/2011ApJ...741...68M)  
geometric albedo albedo 0.066   0.015 urn:nasa:pds:neowise_diameters_albedos::2.0[mainbelt] (http://adsabs.harvard.edu/abs/2011ApJ...741...68M)  

90875 (1996 VE1)          Discovered 1996-Nov-03 by Saji at Saji
Reference: 20041028/Numbers.arcLast Updated: 2004-10-29

Alternate Designations
 1996 VE1 = 1998 EW14 
Ephemeris | Orbit Diagram | Orbital Elements | Mission Design | Physical Parameters | Discovery Circumstances ]
ABOUT SSD CREDITS/AWARDS PRIVACY/COPYRIGHT GLOSSARY LINKS
FirstGov 2021-Sep-21 03:20 UT
(server date/time)  
NASA Home Page
Site Manager:   Ryan S. Park
Webmaster  Alan B. Chamberlin